Powrót do katalogu

STARLINK-4330

AktywnyŁącznośćSSO
NORAD 53080·PAYLOAD·🇺🇸 United States

Wystrzelony Jul 11, 2022 z Vandenberg Space Force Base

Loading…

Następne Przeloty (najbliższe 24 godziny)

TLE

ŚwieżeSource: CelesTrak SupGP

Epoka: Sep 15, 2026, 02:04 UTC

1 53080C 22077AP  26258.08659722 -.00055836  00000+0 -17336-2 0  2584
2 53080  97.2861  73.8874 0001596  87.0784 238.5264 15.33460777    17

Śledź STARLINK-4330 w czasie rzeczywistym z AllMySat

Download on the App Store